"Pseudo-MPEC" for P116kb9

Created 2020 Sep 16 22:07:51 UT using Find_Orb

Click here for an explanation of pseudo-MPECs

 
 Astrometry: 
     P116kb9  C2020 08 230Bx2v@ocoK%E)CVUeAAstrometrynredacted;Trjtyg[7Ojp_2nF52
     P116kb9  C2020 08 23Kc4AL^clickFDcE'`!\KvP%ntyna5_jYV*F$UcmPiQQ3nvn.R*ZNF52
     P116kb9  C2020 08 2349w/mEJ\^oo:y;s.$f_GqjZ?f(Mr2herea!GUR0Hw4^[)SP\I#k'F52
     P116kb9  C2020 09 15C*forOntc3:l:gXB%WtiYK$=`aJjDsmi!jMP^Gmq;_f(h$wExgX#F51
     P116kb9  C2020 09 16Eud,ET*ssNlFX+GKVceBE)0JZ/!gFj-bx75TecG1A,YlbvW+A:;EF51
     P116kb9  C2020 09 16u%HexplanationPlNQ/r^KJO`%:ILD2_6t5H%0buV7Xhl`?U2W\,F51
     P116kb9  C2020 09 16@aGiAM3Sf$(!L-1h\A\yH)9A^Kxe.^+I+Ok2xxtSFhe5J`oa:qjSF51

Station data:
(F51) Pan-STARRS 1, Haleakala  (N20.707235 W156.255910)  US/Hawaii.
   Observers N. Primak, A. Schultz, S. Watters, J. Thiel, T. Goggia. Measurer
   PS1 Science Consortium. 1.8-m Ritchey-Chrétien + CCD.
(F52) Pan-STARRS 2, Haleakala  (N20.707384 W156.255910)  US/Hawaii. 1.8-m
   Ritchey-Chrétien + CCD.

Orbital elements:  P116kb9
   Perihelion 2020 Dec 10.268015 +/- 0.529 TT =  6:25:56 (JD 2459193.768015)
Epoch 2020 Sep 16.0 TT = JDT 2459108.5   Earth MOID: 0.6158   AutoNEOCP
M 324.91082514 +/- 0.33             (J2000 ecliptic)
n   0.41151626 +/- 0.00145          Peri.  251.66931 +/- 0.34
a   1.79010311 +/- 0.0042           Node   168.84365 +/- 0.040
e   0.1654827 +/- 0.00119           Incl.   30.52342 +/- 0.053
P   2.40/874.80d           H 20.4   G  0.15   U  8.4  
q 1.49387192 +/- 0.00148    Q 2.08633430 +/- 0.00697
From 7 observations 2020 Aug. 23-Sept. 16; mean residual 0".05
Residuals in arcseconds: 
200823 F52  .00   .03+    200915 F51  .00   .00     200916 F51  .02-  .05+    
200823 F52  .07-  .09-    200916 F51  .05-  .02-    
200823 F52  .07+  .06+    200916 F51  .07+  .03-    

Ephemerides (geocentric):
Date (UTC) HH   RA              Dec         delta   r     elong  mag " sig PA
---- -- -- --  -------------   -----------  ------ ------ -----  --- ---- ---
2020 09 16 22  02 49 16.847   -12 29 23.08  .70571 1.5663 131.8 21.9 .363  66
2020 09 16 23  02 49 19.276   -12 31 12.92  .70553 1.5662 131.8 21.9 .387  66
2020 09 17 00  02 49 21.701   -12 33 02.79  .70534 1.5661 131.8 21.9 .410  66
2020 09 17 01  02 49 24.123   -12 34 52.72  .70516 1.5661 131.8 21.9 .433  66
2020 09 17 02  02 49 26.541   -12 36 42.68  .70498 1.5660 131.8 21.9 .457  65
2020 09 17 03  02 49 28.955   -12 38 32.69  .70480 1.5659 131.8 21.9 .480  65
2020 09 17 04  02 49 31.366   -12 40 22.74  .70462 1.5659 131.9 21.9 .504  65
2020 09 17 05  02 49 33.772   -12 42 12.84  .70443 1.5658 131.9 21.9 .528  65
2020 09 17 06  02 49 36.175   -12 44 02.98  .70425 1.5657 131.9 21.9 .551  65
2020 09 17 07  02 49 38.574   -12 45 53.16  .70407 1.5657 131.9 21.9 .575  65
2020 09 17 08  02 49 40.970   -12 47 43.39  .70389 1.5656 131.9 21.9 .599  65
2020 09 17 09  02 49 43.361   -12 49 33.65  .70371 1.5655 132.0 21.9 .623  65
2020 09 17 10  02 49 45.749   -12 51 23.96  .70353 1.5655 132.0 21.9 .648  65
2020 09 17 11  02 49 48.133   -12 53 14.31  .70336 1.5654 132.0 21.9 .672  65
2020 09 17 12  02 49 50.514   -12 55 04.71  .70318 1.5654 132.0 21.8 .696  64
2020 09 17 13  02 49 52.890   -12 56 55.14  .70300 1.5653 132.0 21.8 .721  64
2020 09 17 14  02 49 55.263   -12 58 45.62  .70282 1.5652 132.0 21.8 .745  64
2020 09 17 15  02 49 57.632   -13 00 36.14  .70264 1.5652 132.1 21.8 .770  64
2020 09 17 16  02 49 59.998   -13 02 26.70  .70247 1.5651 132.1 21.8 .794  64
2020 09 17 17  02 50 02.359   -13 04 17.30  .70229 1.5650 132.1 21.8 .819  64
2020 09 17 18  02 50 04.717   -13 06 07.94  .70212 1.5650 132.1 21.8 .844  64
2020 09 17 19  02 50 07.071   -13 07 58.62  .70194 1.5649 132.1 21.8 .869  64
2020 09 17 20  02 50 09.421   -13 09 49.35  .70176 1.5648 132.1 21.8 .894  64
2020 09 17 21  02 50 11.768   -13 11 40.11  .70159 1.5648 132.2 21.8 .919  64
2020 09 17 22  02 50 14.110   -13 13 30.91  .70141 1.5647 132.2 21.8 .944  64
2020 09 17 23  02 50 16.449   -13 15 21.76  .70124 1.5646 132.2 21.8 .969  64
2020 09 18 00  02 50 18.784   -13 17 12.64  .70107 1.5646 132.2 21.8 0.99  64
2020 09 18 01  02 50 21.115   -13 19 03.57  .70089 1.5645 132.2 21.8 1.02  64
2020 09 18 02  02 50 23.443   -13 20 54.53  .70072 1.5644 132.2 21.8 1.05  64
2020 09 18 03  02 50 25.767   -13 22 45.53  .70055 1.5644 132.3 21.8 1.07  64
2020 09 18 04  02 50 28.086   -13 24 36.57  .70037 1.5643 132.3 21.8 1.10  64
2020 09 18 05  02 50 30.402   -13 26 27.65  .70020 1.5642 132.3 21.8 1.12  64
2020 09 18 06  02 50 32.715   -13 28 18.77  .70003 1.5642 132.3 21.8 1.15  64
2020 09 18 07  02 50 35.023   -13 30 09.93  .69986 1.5641 132.3 21.8 1.17  64
2020 09 18 08  02 50 37.328   -13 32 01.13  .69969 1.5640 132.3 21.8 1.20  64
2020 09 18 09  02 50 39.628   -13 33 52.37  .69952 1.5640 132.4 21.8 1.23  64
2020 09 18 10  02 50 41.925   -13 35 43.64  .69935 1.5639 132.4 21.8 1.25  64
2020 09 18 11  02 50 44.219   -13 37 34.95  .69918 1.5638 132.4 21.8 1.28  64
2020 09 18 12  02 50 46.508   -13 39 26.30  .69901 1.5638 132.4 21.8 1.31  64
2020 09 18 13  02 50 48.793   -13 41 17.69  .69884 1.5637 132.4 21.8 1.33  64
2020 09 18 14  02 50 51.075   -13 43 09.11  .69867 1.5636 132.4 21.8 1.36  64
2020 09 18 15  02 50 53.353   -13 45 00.57  .69850 1.5636 132.5 21.8 1.39  64
2020 09 18 16  02 50 55.627   -13 46 52.07  .69834 1.5635 132.5 21.8 1.41  64
2020 09 18 17  02 50 57.897   -13 48 43.61  .69817 1.5634 132.5 21.8 1.44  64
2020 09 18 18  02 51 00.164   -13 50 35.18  .69800 1.5634 132.5 21.8 1.47  64
2020 09 18 19  02 51 02.426   -13 52 26.79  .69784 1.5633 132.5 21.8 1.49  64
2020 09 18 20  02 51 04.685   -13 54 18.44  .69767 1.5632 132.5 21.8 1.52  64
2020 09 18 21  02 51 06.940   -13 56 10.12  .69750 1.5632 132.6 21.8 1.55  64